Date,TemperatureHighF,TemperatureAvgF,TemperatureLowF,DewpointHighF,DewpointAvgF,DewpointLowF,HumidityHigh,HumidityAvg,HumidityLow,PressureMaxIn,PressureMinIn,WindSpeedMaxMPH,WindSpeedAvgMPH,GustSpeedMaxMPH,PrecipitationSumIn
2013-6-3,73,62,41,46,40,35,96,49,24,0.00,40.00,6,3,14,0.00
2013-6-4,79,60,42,50,43,37,96,62,23,0.00,40.00,3,1,9,0.00
2013-6-5,79,63,47,49,45,41,92,59,26,0.00,40.00,7,2,17,0.00
2013-6-6,80,59,47,50,45,32,89,65,18,0.00,40.00,2,1,7,0.00
2013-6-7,68,64,57,48,45,39,55,50,46,0.00,40.00,13,7,27,0.00
2013-6-8,74,63,53,43,38,31,61,41,20,0.00,40.00,9,5,18,0.00
2013-6-9,68,60,54,43,36,31,61,43,26,0.00,40.00,7,4,20,0.00
2013-6-10,73,55,40,41,37,28,88,56,20,0.00,40.00,5,2,14,0.00
2013-6-11,60,54,48,42,38,31,71,56,33,0.00,40.00,10,4,23,0.00
2013-6-12,63,51,41,37,35,32,85,57,32,0.00,40.00,7,3,17,0.00
2013-6-13,64,53,40,41,37,35,88,58,33,0.00,40.00,8,3,18,0.00
2013-6-14,67,59,44,42,40,38,85,50,34,0.00,40.00,5,3,14,0.00
2013-6-15,76,61,39,55,42,37,96,57,26,0.00,40.00,2,1,9,0.00
2013-6-16,82,65,48,51,46,35,92,55,20,0.00,40.00,3,2,13,0.00
2013-6-17,74,64,55,49,46,41,80,54,31,0.00,40.00,5,2,10,0.00
2013-6-18,68,58,51,53,47,39,100,72,34,0.00,40.00,2,1,9,0.00
2013-6-19,61,53,48,53,30,-100,100,71,45,0.00,40.00,6,2,16,0.00
2013-6-20,56,53,50,43,41,40,68,64,59,0.00,40.00,7,5,17,0.00
2013-6-22,76,64,45,53,49,44,96,61,33,0.00,40.00,2,1,8,0.00
2013-6-23,70,62,49,55,51,47,92,70,48,0.00,40.00,2,1,5,0.00
2013-6-24,58,55,51,58,55,51,100,99,96,0.00,40.00,1,0,5,0.00
2013-6-25,62,54,43,56,8,-100,100,65,72,0.00,40.00,2,1,6,0.00
2013-6-26,54,49,46,54,-78,-100,100,14,100,0.00,40.00,1,1,5,0.00
2013-6-27,63,58,50,61,-30,-100,100,39,77,0.00,40.00,1,0,3,0.00
2013-6-28,83,69,53,66,1,-100,93,38,45,0.00,40.00,2,1,8,0.00
2013-6-29,81,54,57,71,-74,-100,96,12,60,0.00,40.00,1,1,5,0.00
2013-6-30,-200,0,200,-100,-100,-100,0,0,100,0.00,40.00,3,1,12,0.00